User: anonymous   Login
Location: Unspecified
(0.0000°N, 0.0000°E)
Time: 19:01:16
(UTC+00:00)
Language:

STARLINK-30146 - Orbit

View from above orbital plane
View from above orbital plane
View from above satellite
View from above satellite

Ground track
Ground track

The orbit is defined by the following mean orbital elements,

1 57442U          26145.47553098 +.00000000 +00000-0 -49331-4 0 00009
2 57442  43.0008 186.3389 0001434 269.0182  91.0506 15.27574192    01
Epoch (UTC): 25 May 2026 11:24:45
Eccentricity: 0.0001434
inclination: 43.0008°
perigee height: 482 km
apogee height: 484 km
right ascension of ascending node: 186.3389°
argument of perigee: 269.0182°
revolutions per day: 15.27574192
mean anomaly at epoch: 91.0506°

The dashed part of the orbit path shows where the satellite is in the earth's shadow,  

DLR